Location: Bremen
(53.0793°N, 8.8017°E)
Time: 12:41:47
(UTC+01:00)

Vanguard 1 Rocket - Pass Details

Date: 06 December 2021
Orbit: 651 x 4224 km, 34.3° (Epoch: 25 January)

Event Time Altitude Azimuth Distance (km) Brightness Sun altitude
Rises 09:37:13 0° 271° (W) 7,031 11.6 6.9°
Reaches altitude 10° 09:44:54 10° 253° (WSW) 6,636 11.6 7.6°
Maximum altitude 09:55:18 15° 225° (SW) 6,720 12.0 8.5°
Drops below altitude 10° 10:06:56 10° 198° (SSW) 7,423 12.8 9.4°
Sets 10:17:00 0° 180° (S) 8,304 13.5 10.1°
